Regional Weather Roundup
Issued by NWS Pendleton, OR

Home | Current Version | Previous Version | Text Only | Print | Product List | Glossary On
Versions: 1 2 3 4 5 6 7 8 9 10 11 12 13 14 15 16 17 18 19 20 21 22 23 24 25 26 27 28 29 30 31 32 33 34 35 36 37 38 39 40 41 42 43 44 45 46 47 48 49 50
000
ASUS46 KPDT 221425
RWRPDT
PENDLETON REGIONAL WEATHER ROUNDUP
NATIONAL WEATHER SERVICE PENDLETON OREGON
700 AM PDT FRI AUG 22 2014

NOTE: FAIR INDICATES FEW OR NO CLOUDS BELOW 12,000 FEET WITH NO
SIGNIFICANT WEATHER AND/OR OBSTRUCTIONS TO VISIBILITY.

# INDICATES UNOFFICIAL STATION AND DATA

WAZ520-221510-
EAST SLOPES OF WASHINGTON CASCADES

CITY            SKY/WX      TMP DP  RH  WIND    PRES   REMARKS
#CLE ELUM HS    N/A         47  43  86  CALM    29.96R
#CLE ELUM 2NW   N/A         48  43  83  W1      N/A
#CLE ELUM LAKE  N/A         49  42  77  CALM    29.92R
#CLIFFDEL 2NW   N/A         43  39  86  CALM    N/A
#GLENWOOD       N/A         40  39  96  CALM    29.96R
#NELSON         N/A         47  44  89  CALM    29.96R
#NELSON 3SW     N/A         46  41  83  CALM    30.14R
#NILE           N/A         47  41  79  CALM    29.25R
#RONALD 2NW     N/A         50  43  77  N1      29.89R
#TEANAWAY 4NE   N/A         45  40  82  CALM    N/A
#TROUT LAKE 1NE N/A         46  43  89  CALM    29.95R
$$

WAZ521-221510-
SIMCOE HIGHLANDS

CITY            SKY/WX      TMP DP  RH  WIND    PRES   REMARKS
#BICKLETON HS   N/A         56  31  38  N7      30.03R
#CENTERVILLE 4W N/A         54  44  69  N2      29.73R
#CENTERVILLE 1SWN/A         45  37  73  CALM    29.92R
#GOLDENDALE     N/A         45  37  73  E2      N/A
#GOLDENDALE 1NE N/A         46  34  63  N5      N/A
#GOLDENDALE 1S  N/A         44  38  79  CALM    29.95
#GOODNOE HILLS  N/A         60  44  55  NW5     29.90R
#LYLE 6NE       N/A         56  49  77  CALM    29.90R
$$

WAZ026-221510-
KITTITAS VALLEY

CITY            SKY/WX      TMP DP  RH  WIND    PRES   REMARKS
ELLENSBURG AP   MOSUNNY     55  44  66  N3      29.99R
#ELLENSBURG CWU N/A         56  44  64  NW6     29.89R
#ELLENSBURG 3NE N/A         52  46  80  CALM    29.99R
#ELLENSBURG     N/A         60  48  64  NW2     N/A
#ELLENSBURG 1E  N/A         55  41  59  CALM    N/A
#KITTITAS 3S    N/A         51  47  86  W1      29.92R
#THORP 6N       N/A         51  44  77  N5      29.95R
$$

WAZ027-221510-
YAKIMA VALLEY

CITY            SKY/WX      TMP DP  RH  WIND    PRES   REMARKS
SUNNYSIDE AP    CLOUDY      54  46  74  CALM    29.94R
YAKIMA AIRPORT  MOCLDY      58  45  62  W6      29.97R
YAKIMA-VAGABOND MOSUNNY     58  45  62  E8      29.99R
#COWICHE 1N     N/A         58  42  55  N6      30.14R
#DONALD 2NE     N/A         59  43  55  CALM    30.28R
#GRANDVIEW      N/A         56  45  66  CALM    29.93R
#MABTON         N/A         59  46  62  NW1     29.94R
#MOXEE 2E       N/A         57  37  47  CALM    29.93R
#NACHES 2SW     N/A         58  44  60  NW8     29.99R
#OUTLOOK DOT    N/A         N/A N/A N/A CALM    N/A
#SELAH 8E       N/A         57  45  64  CALM    N/A
#TERRACE HTS    N/A         61  46  58  CALM    29.88R
#TOPPENISH      N/A         56  46  69  W1      29.85R
#WAPATO 4NE     N/A         59  43  55  CALM    30.28R
#W YAKIMA       N/A         60  46  60  N1      29.92
#WHITE SWAN 5E  N/A         51  45  80  W2      29.94R
#WILEY CITY 3W  N/A         54  41  61  CALM    29.97R
$$

WAZ028-221510-
LOWER COLUMBIA BASIN...WASHINGTON

CITY            SKY/WX      TMP DP  RH  WIND    PRES   REMARKS
HANFORD         MOCLDY      65  50  58  NW10    29.92S
PASCO           MOSUNNY     61  54  78  NW8     29.92R
PROSSER AWOS    N/A         59  46  62  SW3     29.97R
RICHLAND AWOS   SUNNY       66  50  56  N9      29.92R
#BASIN CITY 5SW N/A         62  54  75  NW5     29.93R
#BENTON CITY    N/A         64  50  60  CALM    29.82R
#CONNELL 5N     N/A         55  49  80  N7      29.87R
#CONNELL 5NW    N/A         53  50  89  CALM    29.85R
#ELTOPIA        N/A         58  54  87  NW3     29.86R
#ELTOPIA 6NW    N/A         58  54  87  NW7     28.90R
#KENNEWICK 3S   N/A         61  51  70  CALM    29.91R
#PATERSON       N/A         59  52  78  CALM    29.91R
#PROSSER        N/A         62  39  43  SW6     29.91R
#SAGEMOOR 2W    N/A         61  54  78  W3      29.75R
#TOUCHET 2S     N/A         62  49  62  SW5     29.89R
#WEST PASCO     N/A         64  53  67  NW5     29.90R
$$

WAZ029-221510-
FOOTHILLS OF THE BLUES...WASHINGTON

CITY            SKY/WX      TMP DP  RH  WIND    PRES   REMARKS
WALLA WALLA AP  SUNNY       61  44  53  S13     29.95R
#COLLEGE PLACE  N/A         61  44  53  S5      29.94R
#DAYTON SCHOOL  N/A         58  39  49  E2      29.92R
#LOWDEN 2SE     N/A         61  49  65  W1      29.90R
#PLEASANT VIEW 1N/A         55  46  72  SW8     29.90R
#PRESCOTT       N/A         57  47  69  CALM    29.89R
#SUDBURY        N/A         54  N/A N/A CALM    N/A
#WHITMAN COLLEGEN/A         61  46  58  S3      29.95R
#WAITSBURG 8N   N/A         58  36  44  S9      29.88R
#WALLA WALLA 5E N/A         98  49  19  SE9     N/A    HX 95
#WALLA WALLA U  N/A         60  48  64  CALM    29.90R
$$

WAZ030-221510-
BLUE MOUNTAINS...WASHINGTON

CITY            SKY/WX      TMP DP  RH  WIND    PRES   REMARKS
$$

ORZ009-041-WAZ024-221510-
COLUMBIA RIVER GORGE

CITY            SKY/WX      TMP DP  RH  WIND    PRES   REMARKS
HOOD RIVER AP   SUNNY       54  48  80  CALM    29.98R
THE DALLES AP   SUNNY       63  49  60  W3      29.95R
#ARLINGTON AIRPON/A         61  46  58  W5      N/A
#ARLINGTON HS   N/A         59  47  64  CALM    29.83R
#MARYHILL 2W    N/A         62  53  72  SW1     N/A
#MOSIER 1S      N/A         59  42  53  NW9     30.03R
#MURDOCK        N/A         64  52  65  W18     29.96R
#RUFUS DOT      N/A         63  48  58  N3      N/A

$$

ORZ510-221510-
NORTH CENTRAL OREGON

CITY            SKY/WX      TMP DP  RH  WIND    PRES   REMARKS
#CHENOWITH 1W   N/A         55  47  74  NW20    N/A
#COW CYN RST AREN/A         53  43  69  SW3     N/A
#DUFUR 9E       N/A         58  47  67  W2      29.95
#GRASS VALLEY   N/A         50  43  77  S1      N/A
#GRASS VALLEY 1SN/A         50  42  74  CALM    29.96R
#KENT DOT       N/A         51  40  66  SW3     N/A
#MAUPIN SCHOOL  N/A         54  44  69  CALM    28.86R
#MORO SCHOOL    N/A         55  50  83  CALM    29.98R
#SHANIKO 5WSW   N/A         51  38  61  S6      N/A
#SHANIKO 4NW    N/A         51  41  68  S2      30.01R
#TYGH VALLEY 2NEN/A         50  42  74  CALM    29.94R
#WAPANITIA AIRPON/A         53  46  77  NW1     29.93R
#WASCO DOT      N/A         55  50  83  CALM    N/A
#WASCO AIRPORT  N/A         56  46  69  W9      N/A
#WASCO 5NE      N/A         56  46  69  W2      29.92R
$$

ORZ511-221510-
CENTRAL OREGON

CITY            SKY/WX      TMP DP  RH  WIND    PRES   REMARKS
BEND AIRPORT    SUNNY       48  37  65  CALM    30.04
REDMOND AIRPORT PTCLDY      43  37  79  S5      30.02R
#BEND 6E        N/A         48  37  65  CALM    29.89R
#BEND-AWBREY    N/A         49  40  71  N1      29.92R
#BEND-KIM LN    N/A         50  41  71  SW5     30.01R
#CROOKED RVR RANN/A         50  42  74  CALM    29.92R
#CULVER         N/A         52  43  71  N1      29.98R
#LAKE BILLY CHINN/A         51  31  46  SE2     30.08R
#POWELL BUTTE   N/A         52  42  69  CALM    29.67R
#PRINEVILLE 3N  N/A         47  43  86  CALM    29.90R
#WARM SPRINGS   N/A         53  43  69  CALM    29.97R


ORZ509-221510-
EAST SLOPES OF OREGON CASCADES

CITY            SKY/WX      TMP DP  RH  WIND    PRES   REMARKS
#BLUE BOX PASS  N/A         49  -2  12  W2      N/A
#BLACK BUTTE RNCN/A         43  38  82  CALM    29.93R
#CAMP SHERMAN   N/A         41  37  86  CALM    29.98R
#LA PINE DOT    N/A         38  33  82  CALM    N/A
#LA PINE 4NW    N/A         35  32  89  CALM    29.98R
#LAVA BUTTE DOT N/A         42  37  82  SE9     N/A
#SISTERS AIRPOR N/A         45  41  86  CALM    30.01S
#SISTERS ODOT   N/A         43  N/A N/A CALM    N/A
#SISTERS 1NW    N/A         41  35  79  N5      N/A
#SISTERS 3N     N/A         43  32  65  CALM    N/A
#SUNRIVER       N/A         40  37  89  CALM    29.82R
#SUTTLE LK DOT  N/A         44  39  82  W5      N/A
#TUMALO 3W      N/A         51  39  63  S3      29.81R
#WANOGA BUTTE D N/A         46  37  71  CALM    N/A

$$

ORZ044-221510-
LOWER COLUMBIA BASIN...OREGON

CITY            SKY/WX      TMP DP  RH  WIND    PRES   REMARKS
HERMISTON       SUNNY       56  47  72  CALM    29.94R
#BOARDMAN SCHOOLN/A         55  48  77  CALM    29.95R
#BOARDMAN 3W    N/A         58  52  80  SW2     29.65R
#BOARDMAN 8SW   N/A         57  50  77  SW3     29.92R
#ECHO 8SW       N/A         58  46  64  SW3     29.92R
#IONE SCHOOL    N/A         55  44  66  CALM    29.95R
#IRRIGON 4NW    N/A         56  51  83  NW5     N/A
#UMATILLA SCHOOLN/A         56  52  86  CALM    29.97S
$$

ORZ507-221510-
NORTHERN FOOTHILLS OF THE BLUES

CITY            SKY/WX      TMP DP  RH  WIND    PRES   REMARKS
PENDLETON AIRPT SUNNY       59  44  57  CALM    29.96R
#ADAMS 3WNW     N/A         54  44  69  CALM    29.92R
#ATHENA         N/A         58  45  62  CALM    29.92R
#HELIX SCHOOL   N/A         49  41  74  CALM    29.90R
#HELIX 3N       N/A         53  44  71  S6      29.93R
#HOLDMAN 5SE    N/A         55  46  72  SW5     29.96R
#HOLDMAN 6E     N/A         57  46  67  CALM    29.73R
#M-F GROVE ELEM N/A         60  43  53  CALM    29.94R
#M-FREEWATER 5SEN/A         54  44  69  CALM    29.96R
#PDT AQUATIC CTRN/A         58  44  60  CALM    29.93S
#PENDLETON DNTN N/A         56  39  53  E2      29.92R
#PDT SUNRIDGE   N/A         57  46  67  CALM    29.97R
#PENDLETON 7NW  N/A         57  45  64  CALM    N/A
#PILOT ROCK     N/A         55  42  61  CALM    29.99R
#TUTUILLA       N/A         57  49  75  S1      29.87R
#UMAPINE 2E     N/A         62  49  62  SW1     29.91R
#WESTON SCHOOL  N/A         58  43  57  W6      29.93R

$$

ORZ508-221510-
SOUTHERN FOOTHILLS OF THE BLUES

CITY            SKY/WX      TMP DP  RH  WIND    PRES   REMARKS
LEXINGTON       SUNNY       57  45  64  SE6     29.99R
#AJAX           N/A         57  38  49  SW2     29.92R
#CONDON SCHOOL  N/A         52  43  71  CALM    29.96R
#CONDON 5W      N/A         54  43  66  W7      29.97R
#HEPPNER 4NE    N/A         55  45  69  SW2     29.90R
#LEXINGTON 2SE  N/A         54  46  74  CALM    29.94R
#MIKKALO        N/A         59  44  57  W2      29.97R
#OLEX 4N        N/A         55  46  72  SW2     29.94R
#RUGGS 5NE      N/A         58  45  62  CALM    30.14R
#RUGGS 2SW      N/A         56  44  64  SW3     29.95R

$$

ORZ502-503-221510-
BLUE MOUNTAINS

CITY            SKY/WX      TMP DP  RH  WIND    PRES   REMARKS
MEACHAM         MOSUNNY     41  37  86  CALM    30.01R
#BATTLE MTN DOT N/A         48  48  100 N1      N/A
#HEPPNER 15SE   N/A         49  44  83  CALM    29.93R
#LADD CYN SMT   N/A         54  37  52  N7      N/A
#LADD CREEK ODOTN/A         54  42  64  CALM    N/A
#LONG CREEK HS  N/A         46  44  93  CALM    N/A
#N POWDER DOT   N/A         52  45  77  NE10    N/A
#PIKES PEAK     N/A         54  44  69  SW22    27.99S
#TOLLGATE       N/A         46  41  83  SW5     29.96R
#TOLLGATE 9W    N/A         51  43  74  SE2     N/A
#TROY SCHOOL    N/A         57  44  62  W2      29.75R
#UKIAH          N/A         37  34  89  CALM    30.00R
#WESTON 4E      N/A         53  43  69  S3      29.83R
$$

ORZ505-221510-
JOHN DAY BASIN

CITY            SKY/WX      TMP DP  RH  WIND    PRES   REMARKS
JOHN DAY        MOCLDY      51  35  54  E5      30.02R
#JOHN DAY KJDY  N/A         47  34  60  NE1     30.32R
#MONUMENT HS    N/A         47  40  76  CALM    30.00R
#MT. VERNON 5SE N/A         53  42  66  CALM    29.97R
#WINLOCK        N/A         52  44  74  CALM    30.08R
$$

ORZ506-221510-
OCHOCO AND JOHN DAY HIGHLANDS

CITY            SKY/WX      TMP DP  RH  WIND    PRES   REMARKS
#BUCK CREEK DOT N/A         50  45  83  CALM    N/A
#HORSE RIDGE DO N/A         32  25  75  CALM    N/A
#KEYES SMT DOT  N/A         50  42  74  W2      N/A
#PAULINA SCHOOL N/A         42  37  82  CALM    30.02R
#PINE MTN OBS   N/A         44  39  82  NW2     N/A
#PRAIRIE CITY   N/A         40  33  76  CALM    30.11F
#SENECA 9NW     N/A         41  38  89  CALM    29.86S
$$

ORZ049-221510-
GRANDE RONDE VALLEY

CITY            SKY/WX      TMP DP  RH  WIND    PRES   REMARKS
LA GRANDE       SUNNY       57  36  45  NW12    29.97R
#COVE           N/A         54  43  66  CALM    29.90R
#COVE SCHOOL    N/A         55  41  59  CALM    29.96R
#COVE 6NW       N/A         44  37  76  CALM    29.95R
#ELGIN 3N       N/A         47  38  71  CALM    29.72R
#ELGIN 1E       N/A         44  36  73  CALM    N/A
#IMBLER SCHOOL  N/A         50  38  63  CALM    29.95R
#ISLAND CITY 4N N/A         50  41  71  CALM    29.83R
#LADD CYN DOT   N/A         57  41  55  N8      N/A
#LA GRANDE ELEM N/A         57  41  55  N6      29.96R
#UNION 1S       N/A         54  43  66  CALM    29.81R
$$

ORZ050-221510-
WALLOWA COUNTY

CITY            SKY/WX      TMP DP  RH  WIND    PRES   REMARKS
JOSEPH AIRPORT  THUNDER     50  39  66  CALM    30.01R
#ENTERPRISE AP  N/A         47  34  60  CALM    29.94R
#ENTERPRISE HS  N/A         43  38  82  CALM    30.02R
#IMNAHA SCHOOL  N/A         59  37  44  SW2     29.94R
#IMNAHA 10S     N/A         54  37  52  S5      29.97R
#JOSEPH 3N      N/A         42  38  86  NE1     30.02R
#JOSEPH 3W      N/A         53  39  59  CALM    29.86R
#MT HOWARD 8000 N/A         43  32  65  N2      30.14R
#PROMISE 1S     N/A         55  41  59  CALM    29.95R
#SHEEP RDG 7000 N/A         47  31  53  CALM    29.85R
#WALLOWA SCHOOL N/A         45  40  82  CALM    30.81R



$$



USA.gov is the U.S. government's official web portal to all federal, state and local government web resources and services.